Cahokia, IL

9:13 AM CDT on June 18, 2018 (GMT -0500)
Saint Louis Downtown

Weather History for KCPS - June, 2018

Change the Weather History Date:

Wednesday, June 13, 2018

  Actual Average Record
Temperature  
Mean Temperature 80 °F -  
Max Temperature 91 °F 84 °F 98 °F (1952)
Min Temperature 71 °F 66 °F 54 °F (2012)
Cooling Degree Days 16    
Growing Degree Days 30 (Base 50)    
Moisture  
Dew Point 69 °F    
Average Humidity 69    
Maximum Humidity 90    
Minimum Humidity 55    
Precipitation  
Precipitation 0.00 in - - ()
Sea Level Pressure  
Sea Level Pressure 29.96 in    
Wind  
Wind Speed 5 mph (NNW)    
Max Wind Speed 15 mph    
Max Gust Speed 18 mph    
Visibility 10 miles    
Events      
Averages and records for this station are not official NWS values.
T = Trace of Precipitation, MM = Missing Value Source: NWS Daily Summary

Daily Weather History Graph

Daily Weather History Graph

Search for Another Location

Airport or City:

Astronomy

Jun. 13, 2018 Rise Set
Actual Time 5:35 AM CDT 8:25 PM CDT
Civil Twilight 5:03 AM CDT 8:57 PM CDT
Nautical Twilight 4:24 AM CDT 9:37 PM CDT
Astronomical Twilight 3:38 AM CDT 10:23 PM CDT
Moon 5:36 AM CDT (6/13) 8:22 PM CDT (6/13)
Length of Visible Light 15h 53m
Length of Day
14h 50m
Waning Crescent, 0% of the Moon is Illuminated
Jun 13
Waning Crescent
Jun 13
New
Jun 20
First Quarter
Jun 27
Full
Jul 6
Last Quarter

Hourly Weather History & Observations

Time (CDT) Temp. Heat Index Dew Point Humidity Pressure Visibility Wind Dir Wind Speed Gust Speed Precip Events Conditions
12:53 AM 75.9 °F - 69.1 °F 79% 29.91 in 10.0 mi SW 3.5 mph - N/A   Clear
1:53 AM 73.0 °F - 69.1 °F 87% 29.90 in 10.0 mi South 3.5 mph - N/A   Clear
2:53 AM 71.1 °F - 68.0 °F 90% 29.91 in 10.0 mi Calm Calm - N/A   Clear
3:53 AM 73.0 °F - 68.0 °F 84% 29.91 in 10.0 mi WSW 4.6 mph - N/A   Clear
4:53 AM 72.0 °F - 68.0 °F 87% 29.93 in 10.0 mi Calm Calm - N/A   Clear
5:53 AM 73.0 °F - 69.1 °F 87% 29.93 in 10.0 mi Calm Calm - N/A   Clear
6:53 AM 75.0 °F - 70.0 °F 84% 29.94 in 10.0 mi Calm Calm - N/A   Clear
7:53 AM 78.1 °F - 71.1 °F 79% 29.97 in 10.0 mi West 4.6 mph - N/A   Clear
8:41 AM 81.0 °F 84.9 °F 71.1 °F 72% 29.99 in 10.0 mi WNW 6.9 mph - N/A   Clear
8:53 AM 82.0 °F 86.3 °F 71.1 °F 69% 29.97 in 10.0 mi West 5.8 mph - N/A   Clear
9:53 AM 84.0 °F 89.0 °F 71.1 °F 65% 29.96 in 10.0 mi WNW 6.9 mph - N/A   Clear
10:53 AM 84.9 °F 90.1 °F 71.1 °F 63% 29.96 in 10.0 mi WNW 3.5 mph - N/A   Mostly Cloudy
11:53 AM 87.1 °F 92.8 °F 71.1 °F 59% 29.96 in 10.0 mi Variable 6.9 mph - N/A   Mostly Cloudy
12:53 PM 88.0 °F 94.7 °F 72.0 °F 59% 29.96 in 10.0 mi NW 6.9 mph - N/A   Mostly Cloudy
1:53 PM 90.0 °F 96.9 °F 72.0 °F 55% 29.95 in 10.0 mi NNW 9.2 mph - N/A   Mostly Cloudy
2:53 PM 90.0 °F 97.9 °F 73.0 °F 57% 29.96 in 10.0 mi North 6.9 mph 18.4 mph N/A   Scattered Clouds
3:53 PM 89.1 °F 96.0 °F 72.0 °F 57% 29.96 in 10.0 mi NNW 15.0 mph - N/A   Scattered Clouds
4:53 PM 87.1 °F 92.8 °F 71.1 °F 59% 29.96 in 10.0 mi North 10.4 mph - N/A   Scattered Clouds
5:53 PM 87.1 °F 91.3 °F 69.1 °F 55% 29.94 in 10.0 mi North 15.0 mph - N/A   Clear
6:53 PM 84.9 °F 88.2 °F 68.0 °F 57% 29.95 in 10.0 mi NNW 12.7 mph - N/A   Clear
7:53 PM 82.0 °F 84.5 °F 66.9 °F 60% 29.96 in 10.0 mi NNE 12.7 mph - N/A   Clear
8:53 PM 79.0 °F - 63.0 °F 58% 29.97 in 10.0 mi NE 8.1 mph - N/A   Clear
9:53 PM 75.9 °F - 60.1 °F 58% 30.00 in 10.0 mi NNE 5.8 mph - N/A   Clear
10:53 PM 73.0 °F - 61.0 °F 66% 30.01 in 10.0 mi ENE 4.6 mph - N/A   Clear
11:53 PM 72.0 °F - 62.1 °F 71% 30.02 in 10.0 mi ENE 4.6 mph - N/A   Clear